Time,TemperatureF,DewpointF,PressureIn,WindDirection,WindDirectionDegrees,WindSpeedMPH,WindSpeedGustMPH,Humidity,HourlyPrecipIn,Conditions,Clouds,dailyrainin,SoftwareType,DateUTC
2013-02-18 00:00:00,19.6,13.0,29.83,ESE,123,0.0,0.0,75,0.00,,SKC,0.00,VWS V14.01,2013-02-18 06:00:00,
2013-02-18 00:01:00,17.5,10.6,29.88,East,97,0.0,0.0,74,0.00,,SKC,0.00,VWS V14.01,2013-02-18 06:01:00,
2013-02-18 00:05:00,19.7,12.8,29.83,ESE,122,0.0,0.0,74,0.00,,SKC,0.00,VWS V14.01,2013-02-18 06:05:00,
2013-02-18 00:06:00,17.6,10.7,29.88,ESE,105,0.0,0.0,74,0.00,,SKC,0.00,VWS V14.01,2013-02-18 06:06:00,
2013-02-18 00:10:00,19.8,12.9,29.83,SE,132,0.0,0.0,74,0.00,,SKC,0.00,VWS V14.01,2013-02-18 06:10:00,
2013-02-18 00:11:00,17.8,10.9,29.88,ESE,106,0.0,0.0,74,0.00,,SKC,0.00,VWS V14.01,2013-02-18 06:11:00,
2013-02-18 00:15:00,19.8,12.9,29.82,ESE,113,0.0,0.0,74,0.00,,SKC,0.00,VWS V14.01,2013-02-18 06:15:00,
2013-02-18 00:16:00,18.0,11.4,29.88,East,101,0.0,0.0,75,0.00,,SKC,0.00,VWS V14.01,2013-02-18 06:16:00,
2013-02-18 00:20:00,19.8,12.9,29.82,SE,132,0.0,0.0,74,0.00,,SKC,0.00,VWS V14.01,2013-02-18 06:20:00,
2013-02-18 00:21:00,18.1,11.5,29.86,SE,142,0.0,0.0,75,0.00,,SKC,0.00,VWS V14.01,2013-02-18 06:21:00,
2013-02-18 00:25:00,19.8,12.9,29.82,ESE,110,0.0,0.0,74,0.00,,SKC,0.00,VWS V14.01,2013-02-18 06:25:00,
2013-02-18 00:26:00,18.4,11.8,29.86,SE,132,0.0,0.0,75,0.00,,SKC,0.00,VWS V14.01,2013-02-18 06:26:00,
2013-02-18 00:30:00,19.8,13.2,29.81,South,180,0.0,0.0,75,0.00,,SKC,0.00,VWS V14.01,2013-02-18 06:30:00,
2013-02-18 00:31:00,18.6,12.0,29.86,ESE,121,0.0,0.0,75,0.00,,SKC,0.00,VWS V14.01,2013-02-18 06:31:00,
2013-02-18 00:35:00,19.9,13.3,29.81,South,174,0.0,0.0,75,0.00,,SKC,0.00,VWS V14.01,2013-02-18 06:35:00,
2013-02-18 00:36:00,18.7,12.1,29.85,ESE,110,0.0,0.0,75,0.00,,SKC,0.00,VWS V14.01,2013-02-18 06:36:00,
2013-02-18 00:40:00,19.9,13.0,29.81,SSE,152,0.0,0.0,74,0.00,,SKC,0.00,VWS V14.01,2013-02-18 06:40:00,
2013-02-18 00:41:00,18.9,12.3,29.85,SSE,152,0.0,0.0,75,0.00,,SKC,0.00,VWS V14.01,2013-02-18 06:41:00,
2013-02-18 00:45:00,19.9,13.0,29.81,ESE,106,0.0,0.0,74,0.00,,SKC,0.00,VWS V14.01,2013-02-18 06:45:00,
2013-02-18 00:46:00,19.0,12.4,29.85,SE,144,0.0,0.0,75,0.00,,SKC,0.00,VWS V14.01,2013-02-18 06:46:00,
2013-02-18 00:50:00,19.8,12.9,29.81,SE,145,0.0,0.0,74,0.00,,SKC,0.00,VWS V14.01,2013-02-18 06:50:00,
2013-02-18 00:51:00,19.2,12.6,29.85,SE,134,0.0,0.0,75,0.00,,SKC,0.00,VWS V14.01,2013-02-18 06:51:00,
2013-02-18 00:55:00,19.8,12.9,29.81,ESE,114,0.0,0.0,74,0.00,,SKC,0.00,VWS V14.01,2013-02-18 06:55:00,
2013-02-18 00:56:00,19.3,12.7,29.85,ESE,119,0.0,0.0,75,0.00,,SKC,0.00,VWS V14.01,2013-02-18 06:56:00,
2013-02-18 01:00:00,19.7,12.8,29.79,SE,126,0.0,0.0,74,0.00,,SKC,0.00,VWS V14.01,2013-02-18 07:00:00,
2013-02-18 01:01:00,19.5,12.9,29.83,SE,142,0.0,0.0,75,0.00,,SKC,0.00,VWS V14.01,2013-02-18 07:01:00,
2013-02-18 01:05:00,19.7,13.1,29.79,SE,133,0.0,0.0,75,0.00,,SKC,0.00,VWS V14.01,2013-02-18 07:05:00,
2013-02-18 01:06:00,19.7,13.1,29.83,ESE,115,0.0,0.0,75,0.00,,SKC,0.00,VWS V14.01,2013-02-18 07:06:00,
2013-02-18 01:10:00,19.8,13.2,29.79,SSE,155,0.0,0.0,75,0.00,,SKC,0.00,VWS V14.01,2013-02-18 07:10:00,
2013-02-18 01:11:00,19.8,13.2,29.83,SE,131,0.0,0.0,75,0.00,,SKC,0.00,VWS V14.01,2013-02-18 07:11:00,
2013-02-18 01:15:00,19.7,13.1,29.78,ESE,111,0.0,0.0,75,0.00,,SKC,0.00,VWS V14.01,2013-02-18 07:15:00,
2013-02-18 01:16:00,19.8,12.9,29.82,SE,144,0.0,0.0,74,0.00,,SKC,0.00,VWS V14.01,2013-02-18 07:16:00,
2013-02-18 01:20:00,19.7,13.1,29.78,SE,142,0.0,0.0,75,0.00,,SKC,0.00,VWS V14.01,2013-02-18 07:20:00,
2013-02-18 01:21:00,19.9,13.0,29.82,SE,126,0.0,0.0,74,0.00,,SKC,0.00,VWS V14.01,2013-02-18 07:21:00,
2013-02-18 01:25:00,19.7,13.4,29.78,ESE,122,0.0,0.0,76,0.00,,SKC,0.00,VWS V14.01,2013-02-18 07:25:00,
2013-02-18 01:26:00,19.8,12.9,29.82,ESE,121,0.0,0.0,74,0.00,,SKC,0.00,VWS V14.01,2013-02-18 07:26:00,
2013-02-18 01:30:00,19.7,13.4,29.76,SE,126,0.0,0.0,76,0.00,,SKC,0.00,VWS V14.01,2013-02-18 07:30:00,
2013-02-18 01:31:00,19.8,13.2,29.81,SE,131,0.0,0.0,75,0.00,,SKC,0.00,VWS V14.01,2013-02-18 07:31:00,
2013-02-18 01:35:00,19.6,13.3,29.76,ESE,118,0.0,0.0,76,0.00,,SKC,0.00,VWS V14.01,2013-02-18 07:35:00,
2013-02-18 01:36:00,19.9,13.0,29.81,SE,128,0.0,0.0,74,0.00,,SKC,0.00,VWS V14.01,2013-02-18 07:36:00,
2013-02-18 01:40:00,19.6,13.3,29.76,ESE,115,0.0,0.0,76,0.00,,SKC,0.00,VWS V14.01,2013-02-18 07:40:00,
2013-02-18 01:41:00,19.9,13.0,29.81,ESE,107,0.0,0.0,74,0.00,,SKC,0.00,VWS V14.01,2013-02-18 07:41:00,
2013-02-18 01:45:00,19.5,13.2,29.75,ESE,121,0.0,0.0,76,0.00,,SKC,0.00,VWS V14.01,2013-02-18 07:45:00,
2013-02-18 01:46:00,19.9,13.0,29.81,SSE,152,0.0,0.0,74,0.00,,SKC,0.00,VWS V14.01,2013-02-18 07:46:00,
2013-02-18 01:50:00,19.6,13.6,29.75,ESE,117,0.0,0.0,77,0.00,,SKC,0.00,VWS V14.01,2013-02-18 07:50:00,
2013-02-18 01:51:00,19.8,12.9,29.81,ESE,119,0.0,0.0,74,0.00,,SKC,0.00,VWS V14.01,2013-02-18 07:51:00,
2013-02-18 01:55:00,19.7,13.7,29.75,SE,132,0.0,0.0,77,0.00,,SKC,0.00,VWS V14.01,2013-02-18 07:55:00,
2013-02-18 01:56:00,19.8,12.9,29.81,ESE,110,0.0,0.0,74,0.00,,SKC,0.00,VWS V14.01,2013-02-18 07:56:00,
2013-02-18 02:00:00,19.9,13.9,29.74,SE,139,0.0,0.0,77,0.00,,SKC,0.00,VWS V14.01,2013-02-18 08:00:00,
2013-02-18 02:01:00,19.7,12.8,29.79,SE,128,0.0,0.0,74,0.00,,SKC,0.00,VWS V14.01,2013-02-18 08:01:00,
2013-02-18 02:05:00,20.1,14.4,29.74,SE,126,0.0,0.0,78,0.00,,SKC,0.00,VWS V14.01,2013-02-18 08:05:00,
2013-02-18 02:06:00,19.7,13.1,29.79,SE,134,0.0,0.0,75,0.00,,SKC,0.00,VWS V14.01,2013-02-18 08:06:00,
2013-02-18 02:10:00,20.1,14.4,29.74,ESE,103,0.0,0.0,78,0.00,,SKC,0.00,VWS V14.01,2013-02-18 08:10:00,
2013-02-18 02:12:00,19.7,13.1,29.79,ESE,108,0.0,0.0,75,0.00,,SKC,0.00,VWS V14.01,2013-02-18 08:12:00,
2013-02-18 02:15:00,20.3,14.6,29.73,SE,142,0.0,0.0,78,0.00,,SKC,0.00,VWS V14.01,2013-02-18 08:15:00,
2013-02-18 02:17:00,19.7,13.1,29.78,ESE,122,0.0,0.0,75,0.00,,SKC,0.00,VWS V14.01,2013-02-18 08:17:00,
2013-02-18 02:20:00,20.4,14.6,29.73,SE,124,0.0,0.0,78,0.00,,SKC,0.00,VWS V14.01,2013-02-18 08:20:00,
2013-02-18 02:22:00,19.7,13.1,29.78,ESE,115,0.0,0.0,75,0.00,,SKC,0.00,VWS V14.01,2013-02-18 08:22:00,
2013-02-18 02:25:00,20.6,14.8,29.73,SSE,167,0.0,0.0,78,0.00,,SKC,0.00,VWS V14.01,2013-02-18 08:25:00,
2013-02-18 02:27:00,19.7,13.4,29.78,SE,124,0.0,0.0,76,0.00,,SKC,0.00,VWS V14.01,2013-02-18 08:27:00,
2013-02-18 02:30:00,20.6,14.8,29.72,SSE,149,0.0,0.0,78,0.00,,SKC,0.00,VWS V14.01,2013-02-18 08:30:00,
2013-02-18 02:32:00,19.7,13.4,29.76,SSE,166,0.0,0.0,76,0.00,,SKC,0.00,VWS V14.01,2013-02-18 08:32:00,
2013-02-18 02:35:00,20.8,15.0,29.72,ESE,110,0.0,0.0,78,0.00,,SKC,0.00,VWS V14.01,2013-02-18 08:35:00,
2013-02-18 02:37:00,19.6,13.3,29.76,ESE,115,0.0,0.0,76,0.00,,SKC,0.00,VWS V14.01,2013-02-18 08:37:00,
2013-02-18 02:40:00,20.9,15.1,29.72,ESE,118,0.0,0.0,78,0.00,,SKC,0.00,VWS V14.01,2013-02-18 08:40:00,
2013-02-18 02:42:00,19.5,13.2,29.76,ESE,117,0.0,0.0,76,0.00,,SKC,0.00,VWS V14.01,2013-02-18 08:42:00,
2013-02-18 02:45:00,20.9,15.1,29.71,ESE,111,0.0,0.0,78,0.00,,SKC,0.00,VWS V14.01,2013-02-18 08:45:00,
2013-02-18 02:47:00,19.5,13.2,29.75,ESE,115,0.0,0.0,76,0.00,,SKC,0.00,VWS V14.01,2013-02-18 08:47:00,
2013-02-18 02:50:00,20.9,15.1,29.71,ESE,123,0.0,0.0,78,0.00,,SKC,0.00,VWS V14.01,2013-02-18 08:50:00,
2013-02-18 02:52:00,19.6,13.6,29.75,ESE,110,0.0,0.0,77,0.00,,SKC,0.00,VWS V14.01,2013-02-18 08:52:00,
2013-02-18 02:55:00,21.0,15.2,29.71,ESE,106,0.0,0.0,78,0.00,,SKC,0.00,VWS V14.01,2013-02-18 08:55:00,
2013-02-18 02:57:00,19.7,13.7,29.75,SSE,150,0.0,0.0,77,0.00,,SKC,0.00,VWS V14.01,2013-02-18 08:57:00,
2013-02-18 03:00:00,21.0,15.2,29.70,SE,126,0.0,0.0,78,0.00,,SKC,0.00,VWS V14.01,2013-02-18 09:00:00,
2013-02-18 03:02:00,19.8,13.8,29.74,ESE,115,0.0,0.0,77,0.00,,SKC,0.00,VWS V14.01,2013-02-18 09:02:00,
2013-02-18 03:05:00,21.0,15.2,29.70,ESE,105,0.0,0.0,78,0.00,,SKC,0.00,VWS V14.01,2013-02-18 09:05:00,
2013-02-18 03:07:00,20.0,14.3,29.74,SE,130,0.0,0.0,78,0.00,,SKC,0.00,VWS V14.01,2013-02-18 09:07:00,
2013-02-18 03:10:00,21.1,15.3,29.70,ESE,109,0.0,0.0,78,0.00,,SKC,0.00,VWS V14.01,2013-02-18 09:10:00,
2013-02-18 03:12:00,20.1,14.4,29.74,ESE,108,0.0,0.0,78,0.00,,SKC,0.00,VWS V14.01,2013-02-18 09:12:00,
2013-02-18 03:15:00,21.2,15.4,29.70,SSE,161,0.0,0.0,78,0.00,,SKC,0.00,VWS V14.01,2013-02-18 09:15:00,
2013-02-18 03:17:00,20.3,14.6,29.73,SSE,160,0.0,0.0,78,0.00,,SKC,0.00,VWS V14.01,2013-02-18 09:17:00,
2013-02-18 03:20:00,21.2,15.4,29.70,ESE,113,0.0,0.0,78,0.00,,SKC,0.00,VWS V14.01,2013-02-18 09:20:00,
2013-02-18 03:22:00,20.4,14.6,29.73,SE,135,0.0,0.0,78,0.00,,SKC,0.00,VWS V14.01,2013-02-18 09:22:00,
2013-02-18 03:25:00,21.3,15.5,29.70,SE,141,0.0,0.0,78,0.00,,SKC,0.00,VWS V14.01,2013-02-18 09:25:00,
2013-02-18 03:27:00,20.6,14.8,29.73,SSE,149,0.0,0.0,78,0.00,,SKC,0.00,VWS V14.01,2013-02-18 09:27:00,
2013-02-18 03:30:00,21.3,15.8,29.69,SE,131,0.0,0.0,79,0.00,,SKC,0.00,VWS V14.01,2013-02-18 09:30:00,
2013-02-18 03:32:00,20.6,14.8,29.72,SSE,160,0.0,0.0,78,0.00,,SKC,0.00,VWS V14.01,2013-02-18 09:32:00,
2013-02-18 03:35:00,21.4,15.9,29.69,South,171,0.0,0.0,79,0.00,,SKC,0.00,VWS V14.01,2013-02-18 09:35:00,
2013-02-18 03:37:00,20.8,15.0,29.72,ESE,114,0.0,0.0,78,0.00,,SKC,0.00,VWS V14.01,2013-02-18 09:37:00,
2013-02-18 03:40:00,21.3,15.8,29.69,SE,130,0.0,0.0,79,0.00,,SKC,0.00,VWS V14.01,2013-02-18 09:40:00,
2013-02-18 03:42:00,20.9,15.1,29.72,SE,126,0.0,0.0,78,0.00,,SKC,0.00,VWS V14.01,2013-02-18 09:42:00,
2013-02-18 03:45:00,21.4,15.9,29.69,SSE,156,0.0,0.0,79,0.00,,SKC,0.00,VWS V14.01,2013-02-18 09:45:00,
2013-02-18 03:47:00,20.9,15.1,29.71,East,90,0.0,0.0,78,0.00,,SKC,0.00,VWS V14.01,2013-02-18 09:47:00,
2013-02-18 03:50:00,21.4,15.9,29.69,ESE,108,0.0,0.0,79,0.00,,SKC,0.00,VWS V14.01,2013-02-18 09:50:00,
2013-02-18 03:52:00,20.9,15.1,29.71,ESE,123,0.0,0.0,78,0.00,,SKC,0.00,VWS V14.01,2013-02-18 09:52:00,
2013-02-18 03:55:00,21.3,15.8,29.69,East,98,0.0,0.0,79,0.00,,SKC,0.00,VWS V14.01,2013-02-18 09:55:00,
2013-02-18 03:57:00,21.0,15.2,29.71,ESE,113,0.0,0.0,78,0.00,,SKC,0.00,VWS V14.01,2013-02-18 09:57:00,
2013-02-18 04:00:00,21.3,15.8,29.68,SE,126,0.0,0.0,79,0.00,,SKC,0.00,VWS V14.01,2013-02-18 10:00:00,
2013-02-18 04:02:00,21.0,15.2,29.70,SE,126,0.0,0.0,78,0.00,,SKC,0.00,VWS V14.01,2013-02-18 10:02:00,
2013-02-18 04:05:00,21.2,15.7,29.68,SE,144,0.0,0.0,79,0.00,,SKC,0.00,VWS V14.01,2013-02-18 10:05:00,
2013-02-18 04:07:00,21.0,15.2,29.70,ESE,105,0.0,0.0,78,0.00,,SKC,0.00,VWS V14.01,2013-02-18 10:07:00,
2013-02-18 04:10:00,21.1,15.9,29.68,SE,141,0.0,0.0,80,0.00,,SKC,0.00,VWS V14.01,2013-02-18 10:10:00,
2013-02-18 04:12:00,21.1,15.3,29.70,ESE,109,0.0,0.0,78,0.00,,SKC,0.00,VWS V14.01,2013-02-18 10:12:00,
2013-02-18 04:15:00,21.1,15.9,29.67,ESE,117,0.0,0.0,80,0.00,,SKC,0.00,VWS V14.01,2013-02-18 10:15:00,
2013-02-18 04:17:00,21.2,15.4,29.70,SSE,161,0.0,0.0,78,0.00,,SKC,0.00,VWS V14.01,2013-02-18 10:17:00,
2013-02-18 04:20:00,21.0,15.8,29.67,ESE,122,0.0,0.0,80,0.00,,SKC,0.00,VWS V14.01,2013-02-18 10:20:00,
2013-02-18 04:22:00,21.2,15.4,29.70,ESE,113,0.0,0.0,78,0.00,,SKC,0.00,VWS V14.01,2013-02-18 10:22:00,
2013-02-18 04:25:00,21.0,15.8,29.67,ESE,111,0.0,0.0,80,0.00,,SKC,0.00,VWS V14.01,2013-02-18 10:25:00,
2013-02-18 04:27:00,21.3,15.5,29.70,SE,139,0.0,0.0,78,0.00,,SKC,0.00,VWS V14.01,2013-02-18 10:27:00,
2013-02-18 04:30:00,21.0,15.8,29.67,SE,130,0.0,0.0,80,0.00,,SKC,0.00,VWS V14.01,2013-02-18 10:30:00,
2013-02-18 04:32:00,21.3,15.8,29.69,SE,131,0.0,0.0,79,0.00,,SKC,0.00,VWS V14.01,2013-02-18 10:32:00,
2013-02-18 04:35:00,21.0,15.8,29.67,SE,135,0.0,0.0,80,0.00,,SKC,0.00,VWS V14.01,2013-02-18 10:35:00,
2013-02-18 04:37:00,21.4,15.9,29.69,SE,130,0.0,0.0,79,0.00,,SKC,0.00,VWS V14.01,2013-02-18 10:37:00,
2013-02-18 04:40:00,21.0,15.8,29.67,SE,135,0.0,0.0,80,0.00,,SKC,0.00,VWS V14.01,2013-02-18 10:40:00,
2013-02-18 04:42:00,21.3,15.8,29.69,East,98,0.0,0.0,79,0.00,,SKC,0.00,VWS V14.01,2013-02-18 10:42:00,
2013-02-18 04:45:00,20.9,15.7,29.66,ESE,112,0.0,0.0,80,0.00,,SKC,0.00,VWS V14.01,2013-02-18 10:45:00,
2013-02-18 04:47:00,21.4,15.9,29.69,SE,133,0.0,0.0,79,0.00,,SKC,0.00,VWS V14.01,2013-02-18 10:47:00,
2013-02-18 04:50:00,20.9,16.0,29.66,ESE,103,0.0,0.0,81,0.00,,SKC,0.00,VWS V14.01,2013-02-18 10:50:00,
2013-02-18 04:52:00,21.4,15.9,29.69,SE,124,0.0,0.0,79,0.00,,SKC,0.00,VWS V14.01,2013-02-18 10:52:00,
2013-02-18 04:55:00,20.9,16.0,29.66,ESE,119,0.0,0.0,81,0.00,,SKC,0.00,VWS V14.01,2013-02-18 10:55:00,
2013-02-18 04:57:00,21.3,15.8,29.69,ESE,116,0.0,0.0,79,0.00,,SKC,0.00,VWS V14.01,2013-02-18 10:57:00,
2013-02-18 05:00:00,21.0,16.1,29.66,ESE,122,0.0,0.0,81,0.00,,SKC,0.00,VWS V14.01,2013-02-18 11:00:00,
2013-02-18 05:02:00,21.3,15.8,29.68,ESE,115,0.0,0.0,79,0.00,,SKC,0.00,VWS V14.01,2013-02-18 11:02:00,
2013-02-18 05:05:00,20.9,16.0,29.66,SE,132,0.0,0.0,81,0.00,,SKC,0.00,VWS V14.01,2013-02-18 11:05:00,
2013-02-18 05:07:00,21.2,15.7,29.68,SE,125,0.0,0.0,79,0.00,,SKC,0.00,VWS V14.01,2013-02-18 11:07:00,
2013-02-18 05:10:00,20.9,16.0,29.66,ESE,107,0.0,0.0,81,0.00,,SKC,0.00,VWS V14.01,2013-02-18 11:10:00,
2013-02-18 05:12:00,21.1,15.9,29.68,SE,128,0.0,0.0,80,0.00,,SKC,0.00,VWS V14.01,2013-02-18 11:12:00,
2013-02-18 05:15:00,20.9,16.0,29.64,ESE,114,0.0,0.0,81,0.00,,SKC,0.00,VWS V14.01,2013-02-18 11:15:00,
2013-02-18 05:17:00,21.1,15.9,29.67,ESE,119,0.0,0.0,80,0.00,,SKC,0.00,VWS V14.01,2013-02-18 11:17:00,
2013-02-18 05:20:00,20.8,16.2,29.64,ESE,109,0.0,0.0,82,0.00,,SKC,0.00,VWS V14.01,2013-02-18 11:20:00,
2013-02-18 05:23:00,21.0,15.8,29.67,SE,129,0.0,0.0,80,0.00,,SKC,0.00,VWS V14.01,2013-02-18 11:23:00,
2013-02-18 05:25:00,20.8,16.2,29.64,SE,128,0.0,0.0,82,0.00,,SKC,0.00,VWS V14.01,2013-02-18 11:25:00,
2013-02-18 05:28:00,21.1,15.9,29.67,SE,128,0.0,0.0,80,0.00,,SKC,0.00,VWS V14.01,2013-02-18 11:28:00,
2013-02-18 05:30:00,20.8,16.2,29.64,SE,134,0.0,0.0,82,0.00,,SKC,0.00,VWS V14.01,2013-02-18 11:30:00,
2013-02-18 05:33:00,21.0,15.8,29.67,SSE,155,0.0,0.0,80,0.00,,SKC,0.00,VWS V14.01,2013-02-18 11:33:00,
2013-02-18 05:35:00,20.8,16.2,29.64,ESE,121,0.0,0.0,82,0.00,,SKC,0.00,VWS V14.01,2013-02-18 11:35:00,
2013-02-18 05:38:00,21.1,15.9,29.67,SSE,156,0.0,0.0,80,0.00,,SKC,0.00,VWS V14.01,2013-02-18 11:38:00,
2013-02-18 05:40:00,20.8,16.2,29.64,ESE,119,0.0,0.0,82,0.00,,SKC,0.00,VWS V14.01,2013-02-18 11:40:00,
2013-02-18 05:43:00,21.0,15.8,29.67,SE,134,0.0,0.0,80,0.00,,SKC,0.00,VWS V14.01,2013-02-18 11:43:00,
2013-02-18 05:45:00,20.9,16.3,29.62,SE,126,0.0,0.0,82,0.00,,SKC,0.00,VWS V14.01,2013-02-18 11:45:00,
2013-02-18 05:48:00,20.9,15.7,29.66,ESE,119,0.0,0.0,80,0.00,,SKC,0.00,VWS V14.01,2013-02-18 11:48:00,
2013-02-18 05:50:00,21.0,16.4,29.62,ESE,117,0.0,0.0,82,0.00,,SKC,0.00,VWS V14.01,2013-02-18 11:50:00,
2013-02-18 05:53:00,20.8,15.9,29.66,ESE,111,0.0,0.0,81,0.00,,SKC,0.00,VWS V14.01,2013-02-18 11:53:00,
2013-02-18 05:55:00,21.1,16.5,29.62,SE,137,0.0,0.0,82,0.00,,SKC,0.00,VWS V14.01,2013-02-18 11:55:00,
2013-02-18 05:58:00,21.0,16.1,29.66,ESE,121,0.0,0.0,81,0.00,,SKC,0.00,VWS V14.01,2013-02-18 11:58:00,
2013-02-18 06:00:00,21.1,16.5,29.62,SE,134,0.0,0.0,82,0.00,,SKC,0.00,VWS V14.01,2013-02-18 12:00:00,
2013-02-18 06:03:00,20.9,16.0,29.66,ESE,111,0.0,0.0,81,0.00,,SKC,0.00,VWS V14.01,2013-02-18 12:03:00,
2013-02-18 06:05:00,21.2,16.6,29.62,SE,133,0.0,0.0,82,0.00,,SKC,0.00,VWS V14.01,2013-02-18 12:05:00,
2013-02-18 06:08:00,21.0,16.1,29.66,ESE,118,0.0,0.0,81,0.00,,SKC,0.00,VWS V14.01,2013-02-18 12:08:00,
2013-02-18 06:10:00,21.2,16.6,29.62,ESE,109,0.0,0.0,82,0.00,,SKC,0.00,VWS V14.01,2013-02-18 12:10:00,
2013-02-18 06:13:00,20.9,16.0,29.66,ESE,122,0.0,0.0,81,0.00,,SKC,0.00,VWS V14.01,2013-02-18 12:13:00,
2013-02-18 06:15:00,21.3,16.7,29.61,ESE,117,0.0,0.0,82,0.00,,SKC,0.00,VWS V14.01,2013-02-18 12:15:00,
2013-02-18 06:18:00,20.9,16.0,29.64,ESE,112,0.0,0.0,81,0.00,,SKC,0.00,VWS V14.01,2013-02-18 12:18:00,
2013-02-18 06:20:00,21.5,16.9,29.61,ESE,103,0.0,0.0,82,0.00,,SKC,0.00,VWS V14.01,2013-02-18 12:20:00,
2013-02-18 06:23:00,20.8,16.2,29.64,SSE,157,0.0,0.0,82,0.00,,SKC,0.00,VWS V14.01,2013-02-18 12:23:00,
2013-02-18 06:25:00,21.6,17.0,29.61,ESE,107,0.0,0.0,82,0.00,,SKC,0.00,VWS V14.01,2013-02-18 12:25:00,
2013-02-18 06:28:00,20.8,16.2,29.64,SE,132,0.0,0.0,82,0.00,,SKC,0.00,VWS V14.01,2013-02-18 12:28:00,
2013-02-18 06:30:00,21.8,17.2,29.61,SE,129,0.0,0.0,82,0.00,,SKC,0.00,VWS V14.01,2013-02-18 12:30:00,
2013-02-18 06:33:00,20.8,16.2,29.64,ESE,107,0.0,0.0,82,0.00,,SKC,0.00,VWS V14.01,2013-02-18 12:33:00,
2013-02-18 06:35:00,21.9,17.3,29.61,ESE,115,0.0,0.0,82,0.00,,SKC,0.00,VWS V14.01,2013-02-18 12:35:00,
2013-02-18 06:38:00,20.8,16.2,29.64,ESE,110,0.0,0.0,82,0.00,,SKC,0.00,VWS V14.01,2013-02-18 12:38:00,
2013-02-18 06:40:00,22.0,17.4,29.61,ESE,122,0.0,0.0,82,0.00,,SKC,0.00,VWS V14.01,2013-02-18 12:40:00,
2013-02-18 06:43:00,20.8,16.2,29.64,SE,128,0.0,0.0,82,0.00,,SKC,0.00,VWS V14.01,2013-02-18 12:43:00,
2013-02-18 06:45:00,22.2,17.5,29.60,SE,146,0.0,0.0,82,0.00,,SKC,0.00,VWS V14.01,2013-02-18 12:45:00,
2013-02-18 06:48:00,20.9,16.3,29.62,SE,126,0.0,0.0,82,0.00,,SKC,0.00,VWS V14.01,2013-02-18 12:48:00,
2013-02-18 06:50:00,22.3,17.6,29.60,SSE,149,0.0,0.0,82,0.00,,SKC,0.00,VWS V14.01,2013-02-18 12:50:00,
2013-02-18 06:53:00,21.0,16.4,29.62,SE,141,0.0,0.0,82,0.00,,SKC,0.00,VWS V14.01,2013-02-18 12:53:00,
2013-02-18 06:55:00,22.5,17.9,29.60,ESE,117,0.0,0.0,82,0.00,,SKC,0.00,VWS V14.01,2013-02-18 12:55:00,
2013-02-18 06:58:00,21.0,16.4,29.62,SE,143,0.0,0.0,82,0.00,,SKC,0.00,VWS V14.01,2013-02-18 12:58:00,
2013-02-18 07:00:00,22.7,18.0,29.60,East,101,0.0,0.0,82,0.00,,SKC,0.00,VWS V14.01,2013-02-18 13:00:00,
2013-02-18 07:03:00,21.1,16.5,29.62,SSE,148,0.0,0.0,82,0.00,,SKC,0.00,VWS V14.01,2013-02-18 13:03:00,
2013-02-18 07:05:00,22.9,18.2,29.60,SE,138,0.0,0.0,82,0.00,,SKC,0.00,VWS V14.01,2013-02-18 13:05:00,
2013-02-18 07:08:00,21.2,16.6,29.62,ESE,106,0.0,0.0,82,0.00,,SKC,0.00,VWS V14.01,2013-02-18 13:08:00,
2013-02-18 07:10:00,23.1,18.1,29.60,SE,126,0.0,0.0,81,0.00,,SKC,0.00,VWS V14.01,2013-02-18 13:10:00,
2013-02-18 07:13:00,21.2,16.6,29.62,ESE,118,0.0,0.0,82,0.00,,SKC,0.00,VWS V14.01,2013-02-18 13:13:00,
2013-02-18 07:15:00,23.3,18.3,29.60,East,98,0.0,0.0,81,0.00,,SKC,0.00,VWS V14.01,2013-02-18 13:15:00,
2013-02-18 07:18:00,21.4,16.8,29.61,East,98,0.0,0.0,82,0.00,,SKC,0.00,VWS V14.01,2013-02-18 13:18:00,
2013-02-18 07:20:00,23.5,18.5,29.60,ESE,123,0.0,0.0,81,0.00,,SKC,0.00,VWS V14.01,2013-02-18 13:20:00,
2013-02-18 07:23:00,21.5,16.9,29.61,SE,128,0.0,0.0,82,0.00,,SKC,0.00,VWS V14.01,2013-02-18 13:23:00,
2013-02-18 07:25:00,23.7,18.7,29.60,ESE,103,0.0,0.0,81,0.00,,SKC,0.00,VWS V14.01,2013-02-18 13:25:00,
2013-02-18 07:28:00,21.6,17.0,29.61,SE,130,0.0,0.0,82,0.00,,SKC,0.00,VWS V14.01,2013-02-18 13:28:00,
2013-02-18 07:30:00,23.9,18.9,29.59,ESE,122,0.0,0.0,81,0.00,,SKC,0.00,VWS V14.01,2013-02-18 13:30:00,
2013-02-18 07:33:00,21.8,17.2,29.61,ESE,117,0.0,0.0,82,0.00,,SKC,0.00,VWS V14.01,2013-02-18 13:33:00,
2013-02-18 07:35:00,24.1,19.1,29.59,ESE,115,0.0,0.0,81,0.00,,SKC,0.00,VWS V14.01,2013-02-18 13:35:00,
2013-02-18 07:38:00,22.0,17.4,29.61,ESE,107,0.0,0.0,82,0.00,,SKC,0.00,VWS V14.01,2013-02-18 13:38:00,
2013-02-18 07:40:00,24.3,19.0,29.59,ESE,110,0.0,0.0,80,0.00,,SKC,0.00,VWS V14.01,2013-02-18 13:40:00,
2013-02-18 07:43:00,22.1,17.5,29.61,ESE,110,0.0,0.0,82,0.00,,SKC,0.00,VWS V14.01,2013-02-18 13:43:00,
2013-02-18 07:45:00,24.5,19.2,29.58,ESE,116,0.0,0.0,80,0.00,,SKC,0.00,VWS V14.01,2013-02-18 13:45:00,
2013-02-18 07:48:00,22.2,17.5,29.60,ESE,117,0.0,0.0,82,0.00,,SKC,0.00,VWS V14.01,2013-02-18 13:48:00,
2013-02-18 07:50:00,24.7,19.4,29.58,SSE,149,0.0,0.0,80,0.00,,SKC,0.00,VWS V14.01,2013-02-18 13:50:00,
2013-02-18 07:53:00,22.3,17.6,29.60,SE,128,0.0,0.0,82,0.00,,SKC,0.00,VWS V14.01,2013-02-18 13:53:00,
2013-02-18 07:55:00,25.1,19.8,29.58,ESE,117,0.0,0.0,80,0.00,,SKC,0.00,VWS V14.01,2013-02-18 13:55:00,
2013-02-18 07:58:00,22.5,17.9,29.60,SSE,153,0.0,0.0,82,0.00,,SKC,0.00,VWS V14.01,2013-02-18 13:58:00,
2013-02-18 08:00:00,25.4,20.1,29.58,ESE,109,0.0,0.0,80,0.00,,SKC,0.00,VWS V14.01,2013-02-18 14:00:00,
2013-02-18 08:03:00,22.8,18.1,29.60,SE,134,0.0,0.0,82,0.00,,SKC,0.00,VWS V14.01,2013-02-18 14:03:00,
2013-02-18 08:05:00,25.5,19.9,29.58,ESE,123,0.0,0.0,79,0.00,,SKC,0.00,VWS V14.01,2013-02-18 14:05:00,
2013-02-18 08:08:00,22.9,18.2,29.60,SSE,148,0.0,0.0,82,0.00,,SKC,0.00,VWS V14.01,2013-02-18 14:08:00,
2013-02-18 08:10:00,25.8,20.2,29.58,East,94,0.0,0.0,79,0.00,,SKC,0.00,VWS V14.01,2013-02-18 14:10:00,
2013-02-18 08:14:00,23.2,18.2,29.60,ESE,120,0.0,0.0,81,0.00,,SKC,0.00,VWS V14.01,2013-02-18 14:14:00,
2013-02-18 08:15:00,26.1,20.5,29.57,SE,131,0.0,0.0,79,0.00,,SKC,0.00,VWS V14.01,2013-02-18 14:15:00,
2013-02-18 08:19:00,23.4,18.4,29.60,SE,137,0.0,0.0,81,0.00,,SKC,0.00,VWS V14.01,2013-02-18 14:19:00,
2013-02-18 08:20:00,26.5,20.6,29.57,SSE,162,0.0,0.0,78,0.00,,SKC,0.00,VWS V14.01,2013-02-18 14:20:00,
2013-02-18 08:24:00,23.6,18.6,29.60,SE,139,0.0,0.0,81,0.00,,SKC,0.00,VWS V14.01,2013-02-18 14:24:00,
2013-02-18 08:25:00,26.6,20.7,29.57,SE,136,0.0,0.0,78,0.00,,SKC,0.00,VWS V14.01,2013-02-18 14:25:00,
2013-02-18 08:29:00,23.8,18.8,29.60,SSE,159,0.0,0.0,81,0.00,,SKC,0.00,VWS V14.01,2013-02-18 14:29:00,
2013-02-18 08:30:00,26.8,21.2,29.57,ESE,115,0.0,0.0,79,0.00,,SKC,0.00,VWS V14.01,2013-02-18 14:30:00,
2013-02-18 08:34:00,24.0,18.7,29.59,South,183,0.0,0.0,80,0.00,,SKC,0.00,VWS V14.01,2013-02-18 14:34:00,
2013-02-18 08:35:00,27.0,21.1,29.57,South,183,0.0,0.0,78,0.00,,SKC,0.00,VWS V14.01,2013-02-18 14:35:00,
2013-02-18 08:39:00,24.1,18.8,29.59,ESE,117,0.0,0.0,80,0.00,,SKC,0.00,VWS V14.01,2013-02-18 14:39:00,
2013-02-18 08:40:00,27.2,21.3,29.57,SE,130,0.0,0.0,78,0.00,,SKC,0.00,VWS V14.01,2013-02-18 14:40:00,
2013-02-18 08:44:00,24.4,19.1,29.59,ESE,117,0.0,0.0,80,0.00,,SKC,0.00,VWS V14.01,2013-02-18 14:44:00,
2013-02-18 08:45:00,27.5,21.5,29.56,SSE,153,0.0,0.0,78,0.00,,SKC,0.00,VWS V14.01,2013-02-18 14:45:00,
2013-02-18 08:49:00,24.6,19.3,29.58,ESE,103,0.0,0.0,80,0.00,,SKC,0.00,VWS V14.01,2013-02-18 14:49:00,
2013-02-18 08:50:00,27.7,21.8,29.56,South,182,0.0,0.0,78,0.00,,SKC,0.00,VWS V14.01,2013-02-18 14:50:00,
2013-02-18 08:54:00,24.8,19.5,29.58,ESE,118,0.0,0.0,80,0.00,,SKC,0.00,VWS V14.01,2013-02-18 14:54:00,
2013-02-18 08:55:00,27.9,21.6,29.56,SSW,205,0.0,0.0,77,0.00,,SKC,0.00,VWS V14.01,2013-02-18 14:55:00,
2013-02-18 08:59:00,25.2,19.9,29.58,ESE,105,0.0,0.0,80,0.00,,SKC,0.00,VWS V14.01,2013-02-18 14:59:00,
2013-02-18 09:00:00,28.0,21.7,29.55,ESE,122,0.0,0.0,77,0.00,,SKC,0.00,VWS V14.01,2013-02-18 15:00:00,
2013-02-18 09:04:00,25.4,19.8,29.58,ESE,116,0.0,0.0,79,0.00,,SKC,0.00,VWS V14.01,2013-02-18 15:04:00,
2013-02-18 09:05:00,28.0,21.7,29.55,SSE,165,0.0,0.0,77,0.00,,SKC,0.00,VWS V14.01,2013-02-18 15:05:00,
2013-02-18 09:09:00,25.6,20.0,29.58,SE,128,0.0,0.0,79,0.00,,SKC,0.00,VWS V14.01,2013-02-18 15:09:00,
2013-02-18 09:10:00,28.1,21.8,29.55,ESE,120,0.0,0.0,77,0.00,,SKC,0.00,VWS V14.01,2013-02-18 15:10:00,
2013-02-18 09:14:00,26.0,20.4,29.58,SE,130,0.0,0.0,79,0.00,,SKC,0.00,VWS V14.01,2013-02-18 15:14:00,
2013-02-18 09:15:00,28.4,22.1,29.53,SE,146,0.0,0.0,77,0.00,,SKC,0.00,VWS V14.01,2013-02-18 15:15:00,
2013-02-18 09:19:00,26.2,20.6,29.57,SSE,153,0.0,0.0,79,0.00,,SKC,0.00,VWS V14.01,2013-02-18 15:19:00,
2013-02-18 09:20:00,28.9,22.6,29.53,ESE,112,0.0,0.0,77,0.00,,SKC,0.00,VWS V14.01,2013-02-18 15:20:00,
2013-02-18 09:24:00,26.5,20.6,29.57,SE,127,0.0,0.0,78,0.00,,SKC,0.00,VWS V14.01,2013-02-18 15:24:00,
2013-02-18 09:25:00,29.2,22.6,29.53,SE,130,0.0,0.0,76,0.00,,SKC,0.00,VWS V14.01,2013-02-18 15:25:00,
2013-02-18 09:29:00,26.6,20.7,29.57,SE,145,0.0,0.0,78,0.00,,SKC,0.00,VWS V14.01,2013-02-18 15:29:00,
2013-02-18 09:30:00,29.6,23.0,29.52,ESE,110,0.0,0.0,76,0.00,,SKC,0.00,VWS V14.01,2013-02-18 15:30:00,
2013-02-18 09:34:00,26.9,21.3,29.57,ESE,118,0.0,0.0,79,0.00,,SKC,0.00,VWS V14.01,2013-02-18 15:34:00,
2013-02-18 09:35:00,29.9,23.0,29.52,ESE,107,0.0,0.0,75,0.00,,SKC,0.00,VWS V14.01,2013-02-18 15:35:00,
2013-02-18 09:39:00,27.1,21.2,29.57,ESE,107,0.0,0.0,78,0.00,,SKC,0.00,VWS V14.01,2013-02-18 15:39:00,
2013-02-18 09:40:00,30.1,23.1,29.52,SSE,165,0.0,0.0,75,0.00,,SKC,0.00,VWS V14.01,2013-02-18 15:40:00,
2013-02-18 09:44:00,27.3,21.4,29.57,ESE,123,0.0,0.0,78,0.00,,SKC,0.00,VWS V14.01,2013-02-18 15:44:00,
2013-02-18 09:45:00,30.5,23.5,29.53,SE,131,0.0,0.0,75,0.00,,SKC,0.00,VWS V14.01,2013-02-18 15:45:00,
2013-02-18 09:49:00,27.6,21.6,29.56,ESE,121,0.0,0.0,78,0.00,,SKC,0.00,VWS V14.01,2013-02-18 15:49:00,
2013-02-18 09:50:00,30.9,23.6,29.53,SE,126,0.0,0.0,74,0.00,,SKC,0.00,VWS V14.01,2013-02-18 15:50:00,
2013-02-18 09:54:00,27.8,21.9,29.56,ESE,108,0.0,0.0,78,0.00,,SKC,0.00,VWS V14.01,2013-02-18 15:54:00,
2013-02-18 09:55:00,31.1,23.8,29.53,SE,134,0.0,0.0,74,0.00,,SKC,0.00,VWS V14.01,2013-02-18 15:55:00,
2013-02-18 09:59:00,27.9,21.6,29.56,ESE,113,0.0,0.0,77,0.00,,SKC,0.00,VWS V14.01,2013-02-18 15:59:00,
2013-02-18 10:00:00,31.6,24.3,29.52,South,187,0.0,0.0,74,0.00,,SKC,0.00,VWS V14.01,2013-02-18 16:00:00,
2013-02-18 10:04:00,28.0,21.7,29.55,ESE,105,0.0,0.0,77,0.00,,SKC,0.00,VWS V14.01,2013-02-18 16:04:00,
2013-02-18 10:05:00,32.0,24.3,29.52,SSW,206,0.0,0.0,73,0.00,,SKC,0.00,VWS V14.01,2013-02-18 16:05:00,
2013-02-18 10:09:00,28.0,21.7,29.55,SE,136,0.0,0.0,77,0.00,,SKC,0.00,VWS V14.01,2013-02-18 16:09:00,
2013-02-18 10:10:00,32.2,24.5,29.52,SSW,192,0.0,0.0,73,0.00,,SKC,0.00,VWS V14.01,2013-02-18 16:10:00,
2013-02-18 10:14:00,28.2,21.9,29.55,SSE,149,0.0,0.0,77,0.00,,SKC,0.00,VWS V14.01,2013-02-18 16:14:00,
2013-02-18 10:15:00,32.5,24.5,29.52,SE,144,0.0,0.0,72,0.00,,SKC,0.00,VWS V14.01,2013-02-18 16:15:00,
2013-02-18 10:19:00,28.7,22.4,29.53,East,96,0.0,0.0,77,0.00,,SKC,0.00,VWS V14.01,2013-02-18 16:19:00,
2013-02-18 10:20:00,32.7,24.7,29.52,SE,134,0.0,0.0,72,0.00,,SKC,0.00,VWS V14.01,2013-02-18 16:20:00,
2013-02-18 10:24:00,29.0,22.4,29.53,SSW,196,0.0,0.0,76,0.00,,SKC,0.00,VWS V14.01,2013-02-18 16:24:00,
2013-02-18 10:25:00,33.1,25.1,29.52,SSW,194,0.0,0.0,72,0.00,,SKC,0.00,VWS V14.01,2013-02-18 16:25:00,
2013-02-18 10:29:00,29.5,22.9,29.53,East,100,0.0,0.0,76,0.00,,SKC,0.00,VWS V14.01,2013-02-18 16:29:00,
2013-02-18 10:30:00,33.2,25.2,29.51,SW,230,0.0,0.0,72,0.00,,SKC,0.00,VWS V14.01,2013-02-18 16:30:00,
2013-02-18 10:34:00,29.8,23.2,29.52,SE,137,0.0,0.0,76,0.00,,SKC,0.00,VWS V14.01,2013-02-18 16:34:00,
2013-02-18 10:35:00,33.5,25.5,29.51,SW,225,0.0,0.0,72,0.00,,SKC,0.00,VWS V14.01,2013-02-18 16:35:00,
2013-02-18 10:39:00,30.0,23.0,29.52,SE,143,0.0,0.0,75,0.00,,SKC,0.00,VWS V14.01,2013-02-18 16:39:00,
2013-02-18 10:40:00,34.1,26.0,29.51,ESE,113,0.0,0.0,72,0.00,,SKC,0.00,VWS V14.01,2013-02-18 16:40:00,
2013-02-18 10:44:00,30.3,23.3,29.52,SE,146,0.0,0.0,75,0.00,,SKC,0.00,VWS V14.01,2013-02-18 16:44:00,
2013-02-18 10:45:00,34.4,26.0,29.51,SSW,211,0.0,0.0,71,0.00,,SKC,0.00,VWS V14.01,2013-02-18 16:45:00,
2013-02-18 10:49:00,30.7,23.7,29.53,SE,134,0.0,0.0,75,0.00,,SKC,0.00,VWS V14.01,2013-02-18 16:49:00,
2013-02-18 10:50:00,34.5,26.1,29.51,South,188,0.0,0.0,71,0.00,,SKC,0.00,VWS V14.01,2013-02-18 16:50:00,
2013-02-18 10:54:00,31.0,23.7,29.53,SE,130,0.0,0.0,74,0.00,,SKC,0.00,VWS V14.01,2013-02-18 16:54:00,
2013-02-18 10:55:00,35.2,26.8,29.51,SSW,199,0.0,0.0,71,0.00,,SKC,0.00,VWS V14.01,2013-02-18 16:55:00,
2013-02-18 10:59:00,31.3,24.0,29.53,West,281,0.0,0.0,74,0.00,,SKC,0.00,VWS V14.01,2013-02-18 16:59:00,
2013-02-18 11:00:00,35.9,26.7,29.48,SW,222,0.0,0.0,69,0.00,,SKC,0.00,VWS V14.01,2013-02-18 17:00:00,
2013-02-18 11:05:00,31.8,24.5,29.52,South,171,0.0,0.0,74,0.00,,SKC,0.00,VWS V14.01,2013-02-18 17:05:00,
2013-02-18 11:10:00,32.1,24.4,29.52,SSW,213,0.0,0.0,73,0.00,,SKC,0.00,VWS V14.01,2013-02-18 17:10:00,
2013-02-18 11:15:00,32.4,24.7,29.52,SSE,168,0.0,0.0,73,0.00,,SKC,0.00,VWS V14.01,2013-02-18 17:15:00,
2013-02-18 11:20:00,32.6,24.6,29.52,SW,224,0.0,0.0,72,0.00,,SKC,0.00,VWS V14.01,2013-02-18 17:20:00,
2013-02-18 11:25:00,32.9,24.9,29.52,WSW,240,0.0,0.0,72,0.00,,SKC,0.00,VWS V14.01,2013-02-18 17:25:00,
2013-02-18 11:30:00,33.2,25.2,29.52,SE,126,0.0,0.0,72,0.00,,SKC,0.00,VWS V14.01,2013-02-18 17:30:00,
2013-02-18 11:35:00,33.3,25.3,29.51,WSW,246,0.0,0.0,72,0.00,,SKC,0.00,VWS V14.01,2013-02-18 17:35:00,
2013-02-18 11:40:00,33.8,25.7,29.51,SSE,159,0.0,0.0,72,0.00,,SKC,0.00,VWS V14.01,2013-02-18 17:40:00,
2013-02-18 11:45:00,34.3,25.9,29.51,SE,128,0.0,0.0,71,0.00,,SKC,0.00,VWS V14.01,2013-02-18 17:45:00,
2013-02-18 11:50:00,34.4,26.0,29.51,SSE,159,0.0,0.0,71,0.00,,SKC,0.00,VWS V14.01,2013-02-18 17:50:00,
2013-02-18 11:55:00,34.8,26.4,29.51,SSW,199,0.0,0.0,71,0.00,,SKC,0.00,VWS V14.01,2013-02-18 17:55:00,
2013-02-18 12:00:00,35.6,26.8,29.51,SSE,148,0.0,0.0,70,0.00,,SKC,0.00,VWS V14.01,2013-02-18 18:00:00,
2013-02-18 12:05:00,36.2,26.7,29.48,WSW,250,0.0,0.0,68,0.00,,SKC,0.00,VWS V14.01,2013-02-18 18:05:00,
2013-02-18 12:10:00,36.0,27.2,29.48,SW,225,0.0,0.0,70,0.00,,SKC,0.00,VWS V14.01,2013-02-18 18:10:00,
2013-02-18 12:15:00,36.4,26.9,29.48,WSW,257,0.0,0.0,68,0.00,,SKC,0.00,VWS V14.01,2013-02-18 18:15:00,
2013-02-18 12:20:00,36.5,27.0,29.47,SSW,194,0.0,0.0,68,0.00,,SKC,0.00,VWS V14.01,2013-02-18 18:20:00,
2013-02-18 12:25:00,36.9,27.3,29.47,WSW,250,0.0,0.0,68,0.00,,SKC,0.00,VWS V14.01,2013-02-18 18:25:00,
2013-02-18 12:30:00,36.9,27.3,29.47,SE,142,0.0,0.0,68,0.00,,SKC,0.00,VWS V14.01,2013-02-18 18:30:00,
2013-02-18 12:35:00,36.8,27.2,29.46,WSW,246,0.0,0.0,68,0.00,,SKC,0.00,VWS V14.01,2013-02-18 18:35:00,
2013-02-18 12:40:00,37.1,27.5,29.46,SSE,156,0.0,0.0,68,0.00,,SKC,0.00,VWS V14.01,2013-02-18 18:40:00,
2013-02-18 12:45:00,37.1,27.5,29.46,ESE,105,0.0,0.0,68,0.00,,SKC,0.00,VWS V14.01,2013-02-18 18:45:00,
2013-02-18 12:50:00,36.7,27.1,29.47,SE,142,0.0,0.0,68,0.00,,SKC,0.00,VWS V14.01,2013-02-18 18:50:00,
2013-02-18 12:55:00,36.9,27.7,29.47,SW,221,0.0,0.0,69,0.00,,SKC,0.00,VWS V14.01,2013-02-18 18:55:00,
2013-02-18 13:00:00,36.9,27.3,29.47,SE,130,0.0,0.0,68,0.00,,SKC,0.00,VWS V14.01,2013-02-18 19:00:00,
2013-02-18 13:05:00,36.9,27.7,29.46,SE,137,0.0,0.0,69,0.00,,SKC,0.00,VWS V14.01,2013-02-18 19:05:00,
2013-02-18 13:10:00,36.7,27.5,29.46,SSE,161,0.0,0.0,69,0.00,,SKC,0.00,VWS V14.01,2013-02-18 19:10:00,
2013-02-18 13:15:00,35.4,27.3,29.44,SSW,198,0.0,0.0,72,0.01,,SKC,0.01,VWS V14.01,2013-02-18 19:15:00,
2013-02-18 13:16:00,36.9,27.7,29.46,SE,145,0.0,0.0,69,0.00,,SKC,0.00,VWS V14.01,2013-02-18 19:16:00,
2013-02-18 13:20:00,35.6,27.5,29.44,SE,126,1.0,4.0,72,0.00,,SKC,0.01,VWS V14.01,2013-02-18 19:20:00,
2013-02-18 13:21:00,36.7,27.9,29.46,SE,144,0.0,0.0,70,0.01,,SKC,0.01,VWS V14.01,2013-02-18 19:21:00,
2013-02-18 13:25:00,35.5,27.4,29.44,SE,134,0.0,3.0,72,0.00,,SKC,0.01,VWS V14.01,2013-02-18 19:25:00,
2013-02-18 13:26:00,36.6,27.8,29.46,West,264,0.0,0.0,70,0.01,,SKC,0.01,VWS V14.01,2013-02-18 19:26:00,
2013-02-18 13:30:00,35.4,27.3,29.43,SSE,150,3.0,5.0,72,0.00,,SKC,0.01,VWS V14.01,2013-02-18 19:30:00,
2013-02-18 13:31:00,36.3,27.5,29.46,SW,229,0.0,0.0,70,0.01,,SKC,0.01,VWS V14.01,2013-02-18 19:31:00,
2013-02-18 13:35:00,35.2,27.1,29.43,SE,136,1.0,4.0,72,0.00,,SKC,0.01,VWS V14.01,2013-02-18 19:35:00,
2013-02-18 13:36:00,36.2,27.7,29.45,ESE,119,0.0,2.0,71,0.01,,SKC,0.01,VWS V14.01,2013-02-18 19:36:00,
2013-02-18 13:40:00,35.1,27.3,29.43,SW,217,0.0,4.0,73,0.00,,SKC,0.01,VWS V14.01,2013-02-18 19:40:00,
2013-02-18 13:41:00,36.0,27.5,29.45,NE,55,0.0,0.0,71,0.01,,SKC,0.01,VWS V14.01,2013-02-18 19:41:00,
2013-02-18 13:45:00,34.9,27.1,29.43,SSW,206,0.0,4.0,73,0.00,,SKC,0.01,VWS V14.01,2013-02-18 19:45:00,
2013-02-18 13:46:00,36.0,27.5,29.45,SE,126,0.0,0.0,71,0.01,,SKC,0.01,VWS V14.01,2013-02-18 19:46:00,
2013-02-18 13:50:00,34.7,27.3,29.43,West,261,0.0,1.0,74,0.00,,SKC,0.01,VWS V14.01,2013-02-18 19:50:00,
2013-02-18 13:51:00,35.8,27.7,29.44,SSW,206,0.0,1.0,72,0.01,,SKC,0.01,VWS V14.01,2013-02-18 19:51:00,
2013-02-18 13:55:00,34.6,26.9,29.43,SSE,148,2.0,8.0,73,0.00,,SKC,0.01,VWS V14.01,2013-02-18 19:55:00,
2013-02-18 13:56:00,35.7,27.2,29.44,SSW,206,0.0,2.0,71,0.01,,SKC,0.01,VWS V14.01,2013-02-18 19:56:00,
2013-02-18 14:00:00,34.6,26.9,29.43,SSE,150,0.0,2.0,73,0.00,,SKC,0.01,VWS V14.01,2013-02-18 20:00:00,
2013-02-18 14:01:00,35.7,27.2,29.44,SSW,196,0.0,3.0,71,0.01,,SKC,0.01,VWS V14.01,2013-02-18 20:01:00,
2013-02-18 14:05:00,34.5,27.1,29.43,SSW,194,0.0,4.0,74,0.00,,SKC,0.01,VWS V14.01,2013-02-18 20:05:00,
2013-02-18 14:06:00,35.6,27.1,29.44,WNW,296,0.0,2.0,71,0.01,,SKC,0.01,VWS V14.01,2013-02-18 20:06:00,
2013-02-18 14:10:00,34.4,27.0,29.43,South,175,0.0,2.0,74,0.00,,SKC,0.01,VWS V14.01,2013-02-18 20:10:00,
2013-02-18 14:11:00,35.5,27.4,29.44,WSW,252,0.0,0.0,72,0.01,,SKC,0.01,VWS V14.01,2013-02-18 20:11:00,
2013-02-18 14:15:00,34.3,27.2,29.44,SE,133,0.0,2.0,75,0.00,,SKC,0.01,VWS V14.01,2013-02-18 20:15:00,
2013-02-18 14:16:00,35.4,27.3,29.44,WNW,283,0.0,0.0,72,0.01,,SKC,0.01,VWS V14.01,2013-02-18 20:16:00,
2013-02-18 14:20:00,34.2,26.8,29.44,SE,138,0.0,3.0,74,0.00,,SKC,0.01,VWS V14.01,2013-02-18 20:20:00,
2013-02-18 14:21:00,35.6,27.5,29.44,SE,139,3.0,4.0,72,0.00,,SKC,0.01,VWS V14.01,2013-02-18 20:21:00,
2013-02-18 14:25:00,34.1,27.0,29.44,SW,229,0.0,3.0,75,0.00,,SKC,0.01,VWS V14.01,2013-02-18 20:25:00,
2013-02-18 14:26:00,35.5,27.4,29.44,SE,138,2.0,3.0,72,0.00,,SKC,0.01,VWS V14.01,2013-02-18 20:26:00,
2013-02-18 14:30:00,34.0,26.9,29.45,SW,223,0.0,5.0,75,0.00,,SKC,0.01,VWS V14.01,2013-02-18 20:30:00,
2013-02-18 14:31:00,35.4,27.3,29.43,ESE,123,2.0,2.0,72,0.00,,SKC,0.01,VWS V14.01,2013-02-18 20:31:00,
2013-02-18 14:35:00,33.9,27.1,29.45,WSW,258,0.0,0.0,76,0.00,,SKC,0.01,VWS V14.01,2013-02-18 20:35:00,
2013-02-18 14:36:00,35.2,27.1,29.43,SSE,159,0.0,4.0,72,0.00,,SKC,0.01,VWS V14.01,2013-02-18 20:36:00,
2013-02-18 14:40:00,33.7,27.0,29.45,WSW,245,0.0,0.0,76,0.00,,SKC,0.01,VWS V14.01,2013-02-18 20:40:00,
2013-02-18 14:41:00,35.1,27.0,29.43,WSW,249,0.0,4.0,72,0.00,,SKC,0.01,VWS V14.01,2013-02-18 20:41:00,
2013-02-18 14:45:00,33.6,26.9,29.45,SSW,213,0.0,0.0,76,0.00,,SKC,0.01,VWS V14.01,2013-02-18 20:45:00,
2013-02-18 14:46:00,35.0,27.2,29.43,SSW,205,0.0,0.0,73,0.00,,SKC,0.01,VWS V14.01,2013-02-18 20:46:00,
2013-02-18 14:50:00,33.6,26.9,29.45,SSW,202,0.0,5.0,76,0.00,,SKC,0.01,VWS V14.01,2013-02-18 20:50:00,
2013-02-18 14:51:00,34.8,27.4,29.43,WSW,237,0.0,1.0,74,0.00,,SKC,0.01,VWS V14.01,2013-02-18 20:51:00,
2013-02-18 14:55:00,33.6,26.9,29.45,South,180,2.0,2.0,76,0.00,,SKC,0.01,VWS V14.01,2013-02-18 20:55:00,
2013-02-18 14:56:00,34.6,26.9,29.43,SSW,211,0.0,8.0,73,0.00,,SKC,0.01,VWS V14.01,2013-02-18 20:56:00,
2013-02-18 15:00:00,33.5,26.8,29.45,SSE,161,5.0,5.0,76,0.00,,SKC,0.01,VWS V14.01,2013-02-18 21:00:00,
2013-02-18 15:01:00,34.6,26.9,29.43,South,175,0.0,2.0,73,0.00,,SKC,0.01,VWS V14.01,2013-02-18 21:01:00,
2013-02-18 15:05:00,33.5,27.1,29.45,SE,144,0.0,5.0,77,0.00,,SKC,0.01,VWS V14.01,2013-02-18 21:05:00,
2013-02-18 15:06:00,34.6,27.2,29.43,SW,217,2.0,4.0,74,0.00,,SKC,0.01,VWS V14.01,2013-02-18 21:06:00,
2013-02-18 15:10:00,33.3,27.2,29.45,SW,229,0.0,0.0,78,0.00,,SKC,0.01,VWS V14.01,2013-02-18 21:10:00,
2013-02-18 15:11:00,34.5,27.1,29.43,SE,130,1.0,2.0,74,0.00,,SKC,0.01,VWS V14.01,2013-02-18 21:11:00,
2013-02-18 15:15:00,33.2,27.1,29.45,WSW,253,0.0,1.0,78,0.00,,SKC,0.01,VWS V14.01,2013-02-18 21:15:00,
2013-02-18 15:16:00,34.4,27.3,29.44,SSE,167,0.0,2.0,75,0.00,,SKC,0.01,VWS V14.01,2013-02-18 21:16:00,
2013-02-18 15:20:00,33.0,27.5,29.45,WSW,252,0.0,0.0,80,0.00,,SKC,0.01,VWS V14.01,2013-02-18 21:20:00,
2013-02-18 15:21:00,34.2,26.8,29.44,SE,138,0.0,3.0,74,0.00,,SKC,0.01,VWS V14.01,2013-02-18 21:21:00,
2013-02-18 15:25:00,32.7,27.8,29.45,WSW,250,0.0,2.0,82,0.00,,SKC,0.01,VWS V14.01,2013-02-18 21:25:00,
2013-02-18 15:26:00,34.1,27.0,29.44,SSW,204,0.0,3.0,75,0.00,,SKC,0.01,VWS V14.01,2013-02-18 21:26:00,
2013-02-18 15:30:00,32.4,27.8,29.45,WNW,290,0.0,0.0,83,0.00,,SKC,0.01,VWS V14.01,2013-02-18 21:30:00,
2013-02-18 15:32:00,34.0,26.9,29.45,SW,222,0.0,5.0,75,0.00,,SKC,0.01,VWS V14.01,2013-02-18 21:32:00,
2013-02-18 15:35:00,32.1,28.1,29.45,West,264,0.0,0.0,85,0.00,,SKC,0.01,VWS V14.01,2013-02-18 21:35:00,
2013-02-18 15:37:00,33.9,27.1,29.45,WSW,258,0.0,0.0,76,0.00,,SKC,0.01,VWS V14.01,2013-02-18 21:37:00,
2013-02-18 15:40:00,31.8,28.1,29.45,WSW,248,0.0,0.0,86,0.00,,SKC,0.01,VWS V14.01,2013-02-18 21:40:00,
2013-02-18 15:42:00,33.7,27.0,29.45,WSW,245,0.0,0.0,76,0.00,,SKC,0.01,VWS V14.01,2013-02-18 21:42:00,
2013-02-18 15:45:00,31.6,28.5,29.45,WSW,253,0.0,0.0,88,0.00,,SKC,0.01,VWS V14.01,2013-02-18 21:45:00,
2013-02-18 15:47:00,33.7,27.0,29.45,SW,214,0.0,0.0,76,0.00,,SKC,0.01,VWS V14.01,2013-02-18 21:47:00,
2013-02-18 15:50:00,31.3,28.4,29.45,West,268,0.0,0.0,89,0.00,,SKC,0.01,VWS V14.01,2013-02-18 21:50:00,
2013-02-18 15:52:00,33.6,26.9,29.45,South,184,3.0,5.0,76,0.00,,SKC,0.01,VWS V14.01,2013-02-18 21:52:00,
2013-02-18 15:55:00,31.1,28.5,29.45,WSW,250,0.0,0.0,90,0.00,,SKC,0.01,VWS V14.01,2013-02-18 21:55:00,
2013-02-18 15:57:00,33.6,26.9,29.45,SSE,168,0.0,0.0,76,0.00,,SKC,0.01,VWS V14.01,2013-02-18 21:57:00,
2013-02-18 16:00:00,30.9,28.6,29.45,WSW,246,0.0,0.0,91,0.00,,SKC,0.01,VWS V14.01,2013-02-18 22:00:00,
2013-02-18 16:02:00,33.5,26.8,29.45,SSW,192,2.0,4.0,76,0.00,,SKC,0.01,VWS V14.01,2013-02-18 22:02:00,
2013-02-18 16:05:00,30.7,28.7,29.45,West,259,0.0,1.0,92,0.00,,SKC,0.01,VWS V14.01,2013-02-18 22:05:00,
2013-02-18 16:07:00,33.5,26.8,29.45,SE,144,0.0,5.0,76,0.00,,SKC,0.01,VWS V14.01,2013-02-18 22:07:00,
2013-02-18 16:10:00,30.6,28.6,29.45,WSW,250,0.0,0.0,92,0.00,,SKC,0.01,VWS V14.01,2013-02-18 22:10:00,
2013-02-18 16:12:00,33.3,27.2,29.45,SW,229,0.0,0.0,78,0.00,,SKC,0.01,VWS V14.01,2013-02-18 22:12:00,
2013-02-18 16:15:00,30.5,28.7,29.45,WSW,253,0.0,0.0,93,0.00,,SKC,0.01,VWS V14.01,2013-02-18 22:15:00,
2013-02-18 16:17:00,33.2,27.1,29.45,South,172,0.0,1.0,78,0.00,,SKC,0.01,VWS V14.01,2013-02-18 22:17:00,
2013-02-18 16:20:00,30.4,28.6,29.45,WNW,282,0.0,0.0,93,0.00,,SKC,0.01,VWS V14.01,2013-02-18 22:20:00,
2013-02-18 16:22:00,33.0,27.5,29.45,WSW,252,0.0,0.0,80,0.00,,SKC,0.01,VWS V14.01,2013-02-18 22:22:00,
2013-02-18 16:25:00,30.4,28.6,29.45,West,273,0.0,0.0,93,0.00,,SKC,0.01,VWS V14.01,2013-02-18 22:25:00,
2013-02-18 16:27:00,32.7,27.8,29.45,WSW,250,0.0,2.0,82,0.00,,SKC,0.01,VWS V14.01,2013-02-18 22:27:00,
2013-02-18 16:30:00,30.3,28.8,29.45,West,273,0.0,0.0,94,0.00,,SKC,0.01,VWS V14.01,2013-02-18 22:30:00,
2013-02-18 16:32:00,32.4,27.8,29.45,WNW,290,0.0,0.0,83,0.00,,SKC,0.01,VWS V14.01,2013-02-18 22:32:00,
2013-02-18 16:35:00,30.3,28.8,29.45,West,279,0.0,0.0,94,0.00,,SKC,0.01,VWS V14.01,2013-02-18 22:35:00,
2013-02-18 16:37:00,32.1,28.1,29.45,West,264,0.0,0.0,85,0.00,,SKC,0.01,VWS V14.01,2013-02-18 22:37:00,
2013-02-18 16:40:00,30.2,28.7,29.45,West,265,0.0,0.0,94,0.00,,SKC,0.01,VWS V14.01,2013-02-18 22:40:00,
2013-02-18 16:42:00,31.8,28.1,29.45,WSW,248,0.0,0.0,86,0.00,,SKC,0.01,VWS V14.01,2013-02-18 22:42:00,
2013-02-18 16:45:00,30.2,28.7,29.44,WNW,284,0.0,0.0,94,0.00,,SKC,0.01,VWS V14.01,2013-02-18 22:45:00,
2013-02-18 16:47:00,31.6,28.5,29.45,WSW,253,0.0,0.0,88,0.00,,SKC,0.01,VWS V14.01,2013-02-18 22:47:00,
2013-02-18 16:50:00,30.1,28.6,29.44,WNW,284,0.0,0.0,94,0.00,,SKC,0.01,VWS V14.01,2013-02-18 22:50:00,
2013-02-18 16:52:00,31.3,28.4,29.45,West,269,0.0,0.0,89,0.00,,SKC,0.01,VWS V14.01,2013-02-18 22:52:00,
2013-02-18 16:55:00,30.1,28.6,29.44,WNW,284,0.0,0.0,94,0.00,,SKC,0.01,VWS V14.01,2013-02-18 22:55:00,
2013-02-18 16:57:00,31.1,28.5,29.45,WSW,250,0.0,0.0,90,0.00,,SKC,0.01,VWS V14.01,2013-02-18 22:57:00,
2013-02-18 17:00:00,30.1,28.6,29.45,WNW,284,0.0,0.0,94,0.00,,SKC,0.01,VWS V14.01,2013-02-18 23:00:00,
2013-02-18 17:02:00,30.9,28.6,29.45,WSW,246,0.0,0.0,91,0.00,,SKC,0.01,VWS V14.01,2013-02-18 23:02:00,
2013-02-18 17:05:00,30.1,28.6,29.45,WNW,284,0.0,0.0,94,0.00,,SKC,0.01,VWS V14.01,2013-02-18 23:05:00,
2013-02-18 17:07:00,30.7,28.7,29.45,West,259,0.0,1.0,92,0.00,,SKC,0.01,VWS V14.01,2013-02-18 23:07:00,
2013-02-18 17:10:00,30.1,28.6,29.45,WNW,284,0.0,0.0,94,0.00,,SKC,0.01,VWS V14.01,2013-02-18 23:10:00,
2013-02-18 17:12:00,30.6,28.6,29.45,WSW,250,0.0,0.0,92,0.00,,SKC,0.01,VWS V14.01,2013-02-18 23:12:00,
2013-02-18 17:15:00,30.0,28.5,29.44,WNW,284,0.0,0.0,94,0.00,,SKC,0.01,VWS V14.01,2013-02-18 23:15:00,
2013-02-18 17:17:00,30.5,28.7,29.45,WSW,253,0.0,0.0,93,0.00,,SKC,0.01,VWS V14.01,2013-02-18 23:17:00,
2013-02-18 17:20:00,30.0,28.7,29.44,West,271,0.0,0.0,95,0.00,,SKC,0.01,VWS V14.01,2013-02-18 23:20:00,
2013-02-18 17:22:00,30.4,28.6,29.45,WNW,282,0.0,0.0,93,0.00,,SKC,0.01,VWS V14.01,2013-02-18 23:22:00,
2013-02-18 17:25:00,30.0,28.7,29.44,West,281,0.0,0.0,95,0.00,,SKC,0.01,VWS V14.01,2013-02-18 23:25:00,
2013-02-18 17:27:00,30.4,28.6,29.45,West,273,0.0,0.0,93,0.00,,SKC,0.01,VWS V14.01,2013-02-18 23:27:00,
2013-02-18 17:30:00,29.9,28.4,29.43,West,268,0.0,0.0,94,0.00,,SKC,0.01,VWS V14.01,2013-02-18 23:30:00,
2013-02-18 17:32:00,30.3,28.8,29.45,West,273,0.0,0.0,94,0.00,,SKC,0.01,VWS V14.01,2013-02-18 23:32:00,
2013-02-18 17:35:00,29.8,28.3,29.43,WNW,288,0.0,0.0,94,0.00,,SKC,0.01,VWS V14.01,2013-02-18 23:35:00,
2013-02-18 17:37:00,30.2,28.7,29.45,West,280,0.0,0.0,94,0.00,,SKC,0.01,VWS V14.01,2013-02-18 23:37:00,
2013-02-18 17:40:00,29.7,28.2,29.43,WNW,288,0.0,0.0,94,0.00,,SKC,0.01,VWS V14.01,2013-02-18 23:40:00,
2013-02-18 17:42:00,30.2,28.7,29.45,West,260,0.0,0.0,94,0.00,,SKC,0.01,VWS V14.01,2013-02-18 23:42:00,
2013-02-18 17:45:00,29.8,28.3,29.43,WNW,288,0.0,0.0,94,0.00,,SKC,0.01,VWS V14.01,2013-02-18 23:45:00,
2013-02-18 17:47:00,30.2,28.7,29.44,WNW,284,0.0,0.0,94,0.00,,SKC,0.01,VWS V14.01,2013-02-18 23:47:00,
2013-02-18 17:50:00,29.7,28.2,29.43,WNW,288,0.0,0.0,94,0.00,,SKC,0.01,VWS V14.01,2013-02-18 23:50:00,
2013-02-18 17:52:00,30.1,28.6,29.44,WNW,284,0.0,0.0,94,0.00,,SKC,0.01,VWS V14.01,2013-02-18 23:52:00,
2013-02-18 17:55:00,29.7,28.5,29.43,WNW,291,0.0,0.0,95,0.00,,SKC,0.01,VWS V14.01,2013-02-18 23:55:00,
2013-02-18 17:57:00,30.1,28.6,29.44,WNW,284,0.0,0.0,94,0.00,,SKC,0.01,VWS V14.01,2013-02-18 23:57:00,
2013-02-18 18:00:00,29.6,28.4,29.45,West,260,0.0,0.0,95,0.00,,SKC,0.01,VWS V14.01,2013-02-19 00:00:00,
2013-02-18 18:03:00,30.1,28.6,29.45,WNW,284,0.0,0.0,94,0.00,,SKC,0.01,VWS V14.01,2013-02-19 00:03:00,
2013-02-18 18:05:00,29.6,28.4,29.45,WNW,282,0.0,0.0,95,0.00,,SKC,0.01,VWS V14.01,2013-02-19 00:05:00,
2013-02-18 18:08:00,30.1,28.6,29.45,WNW,284,0.0,0.0,94,0.00,,SKC,0.01,VWS V14.01,2013-02-19 00:08:00,
2013-02-18 18:10:00,29.6,28.4,29.45,West,277,0.0,0.0,95,0.00,,SKC,0.01,VWS V14.01,2013-02-19 00:10:00,
2013-02-18 18:13:00,30.1,28.6,29.45,WNW,284,0.0,0.0,94,0.00,,SKC,0.01,VWS V14.01,2013-02-19 00:13:00,
2013-02-18 18:15:00,29.6,28.4,29.44,West,277,0.0,0.0,95,0.00,,SKC,0.01,VWS V14.01,2013-02-19 00:15:00,
2013-02-18 18:18:00,30.0,28.5,29.44,WNW,284,0.0,0.0,94,0.00,,SKC,0.01,VWS V14.01,2013-02-19 00:18:00,
2013-02-18 18:20:00,29.6,28.4,29.44,West,277,0.0,0.0,95,0.00,,SKC,0.01,VWS V14.01,2013-02-19 00:20:00,
2013-02-18 18:23:00,30.0,28.7,29.44,West,270,0.0,0.0,95,0.00,,SKC,0.01,VWS V14.01,2013-02-19 00:23:00,
2013-02-18 18:25:00,29.5,28.2,29.44,West,261,0.0,0.0,95,0.00,,SKC,0.01,VWS V14.01,2013-02-19 00:25:00,
2013-02-18 18:28:00,30.0,28.7,29.44,WNW,288,0.0,0.0,95,0.00,,SKC,0.01,VWS V14.01,2013-02-19 00:28:00,
2013-02-18 18:30:00,29.5,28.2,29.44,West,269,0.0,0.0,95,0.00,,SKC,0.01,VWS V14.01,2013-02-19 00:30:00,
2013-02-18 18:33:00,29.8,28.3,29.43,West,268,0.0,0.0,94,0.00,,SKC,0.01,VWS V14.01,2013-02-19 00:33:00,
2013-02-18 18:35:00,29.5,28.2,29.44,West,277,0.0,0.0,95,0.00,,SKC,0.01,VWS V14.01,2013-02-19 00:35:00,
2013-02-18 18:38:00,29.8,28.3,29.43,WNW,288,0.0,0.0,94,0.00,,SKC,0.01,VWS V14.01,2013-02-19 00:38:00,
2013-02-18 18:40:00,29.4,28.1,29.44,West,277,0.0,0.0,95,0.00,,SKC,0.01,VWS V14.01,2013-02-19 00:40:00,
2013-02-18 18:43:00,29.8,28.3,29.43,WNW,288,0.0,0.0,94,0.00,,SKC,0.01,VWS V14.01,2013-02-19 00:43:00,
2013-02-18 18:45:00,29.4,28.1,29.43,West,277,0.0,0.0,95,0.00,,SKC,0.01,VWS V14.01,2013-02-19 00:45:00,
2013-02-18 18:48:00,29.7,28.2,29.43,WNW,288,0.0,0.0,94,0.00,,SKC,0.01,VWS V14.01,2013-02-19 00:48:00,
2013-02-18 18:50:00,29.4,28.1,29.43,WSW,253,0.0,0.0,95,0.00,,SKC,0.01,VWS V14.01,2013-02-19 00:50:00,
2013-02-18 18:53:00,29.7,28.5,29.43,WNW,288,0.0,0.0,95,0.00,,SKC,0.01,VWS V14.01,2013-02-19 00:53:00,
2013-02-18 18:55:00,29.4,28.1,29.43,West,273,0.0,0.0,95,0.00,,SKC,0.01,VWS V14.01,2013-02-19 00:55:00,
2013-02-18 18:58:00,29.7,28.5,29.43,WNW,290,0.0,0.0,95,0.00,,SKC,0.01,VWS V14.01,2013-02-19 00:58:00,
2013-02-18 19:00:00,29.4,28.1,29.43,West,261,0.0,0.0,95,0.00,,SKC,0.01,VWS V14.01,2013-02-19 01:00:00,
2013-02-18 19:03:00,29.7,28.5,29.45,West,259,0.0,0.0,95,0.00,,SKC,0.01,VWS V14.01,2013-02-19 01:03:00,
2013-02-18 19:05:00,29.3,28.0,29.43,West,272,0.0,0.0,95,0.00,,SKC,0.01,VWS V14.01,2013-02-19 01:05:00,
2013-02-18 19:08:00,29.6,28.4,29.45,West,280,0.0,0.0,95,0.00,,SKC,0.01,VWS V14.01,2013-02-19 01:08:00,
2013-02-18 19:10:00,29.3,28.0,29.43,West,280,0.0,0.0,95,0.00,,SKC,0.01,VWS V14.01,2013-02-19 01:10:00,
2013-02-18 19:13:00,29.6,28.4,29.45,West,277,0.0,0.0,95,0.00,,SKC,0.01,VWS V14.01,2013-02-19 01:13:00,
2013-02-18 19:15:00,29.3,28.0,29.41,West,273,0.0,0.0,95,0.00,,SKC,0.01,VWS V14.01,2013-02-19 01:15:00,
2013-02-18 19:18:00,29.6,28.4,29.44,West,277,0.0,0.0,95,0.00,,SKC,0.01,VWS V14.01,2013-02-19 01:18:00,
2013-02-18 19:20:00,29.3,28.0,29.41,West,272,0.0,0.0,95,0.00,,SKC,0.01,VWS V14.01,2013-02-19 01:20:00,
2013-02-18 19:23:00,29.5,28.2,29.44,West,277,0.0,0.0,95,0.00,,SKC,0.01,VWS V14.01,2013-02-19 01:23:00,
2013-02-18 19:25:00,29.2,28.0,29.41,West,273,0.0,0.0,95,0.00,,SKC,0.01,VWS V14.01,2013-02-19 01:25:00,
2013-02-18 19:28:00,29.5,28.2,29.44,West,259,0.0,0.0,95,0.00,,SKC,0.01,VWS V14.01,2013-02-19 01:28:00,
2013-02-18 19:30:00,29.2,28.0,29.41,WNW,282,0.0,0.0,95,0.00,,SKC,0.01,VWS V14.01,2013-02-19 01:30:00,
2013-02-18 19:33:00,29.5,28.2,29.44,West,269,0.0,0.0,95,0.00,,SKC,0.01,VWS V14.01,2013-02-19 01:33:00,
2013-02-18 19:35:00,29.2,28.0,29.41,West,277,0.0,0.0,95,0.00,,SKC,0.01,VWS V14.01,2013-02-19 01:35:00,
2013-02-18 19:38:00,29.5,28.2,29.44,WNW,286,0.0,0.0,95,0.00,,SKC,0.01,VWS V14.01,2013-02-19 01:38:00,
2013-02-18 19:40:00,29.1,27.6,29.41,WNW,290,0.0,0.0,94,0.00,,SKC,0.01,VWS V14.01,2013-02-19 01:40:00,
2013-02-18 19:43:00,29.5,28.2,29.44,West,277,0.0,0.0,95,0.00,,SKC,0.01,VWS V14.01,2013-02-19 01:43:00,
2013-02-18 19:45:00,29.0,27.5,29.40,West,272,0.0,0.0,94,0.00,,SKC,0.01,VWS V14.01,2013-02-19 01:45:00,
2013-02-18 19:48:00,29.5,28.2,29.43,WSW,253,0.0,0.0,95,0.00,,SKC,0.01,VWS V14.01,2013-02-19 01:48:00,
2013-02-18 19:50:00,28.9,27.4,29.40,West,277,0.0,0.0,94,0.00,,SKC,0.01,VWS V14.01,2013-02-19 01:50:00,
2013-02-18 19:53:00,29.4,28.1,29.43,WSW,253,0.0,0.0,95,0.00,,SKC,0.01,VWS V14.01,2013-02-19 01:53:00,
2013-02-18 19:55:00,28.9,27.4,29.40,West,261,0.0,0.0,94,0.00,,SKC,0.01,VWS V14.01,2013-02-19 01:55:00,
2013-02-18 19:58:00,29.4,28.1,29.43,West,281,0.0,0.0,95,0.00,,SKC,0.01,VWS V14.01,2013-02-19 01:58:00,
2013-02-18 20:00:00,28.9,27.4,29.39,West,279,0.0,0.0,94,0.00,,SKC,0.01,VWS V14.01,2013-02-19 02:00:00,
2013-02-18 20:03:00,29.4,28.1,29.43,West,272,0.0,0.0,95,0.00,,SKC,0.01,VWS V14.01,2013-02-19 02:03:00,
2013-02-18 20:05:00,28.9,27.4,29.39,WNW,284,0.0,0.0,94,0.00,,SKC,0.01,VWS V14.01,2013-02-19 02:05:00,
2013-02-18 20:08:00,29.3,28.0,29.43,West,275,0.0,0.0,95,0.00,,SKC,0.01,VWS V14.01,2013-02-19 02:08:00,
2013-02-18 20:10:00,28.9,27.4,29.39,West,269,0.0,0.0,94,0.00,,SKC,0.01,VWS V14.01,2013-02-19 02:10:00,
2013-02-18 20:13:00,29.3,28.0,29.43,West,277,0.0,0.0,95,0.00,,SKC,0.01,VWS V14.01,2013-02-19 02:13:00,
2013-02-18 20:15:00,28.9,27.4,29.39,WNW,289,0.0,0.0,94,0.00,,SKC,0.01,VWS V14.01,2013-02-19 02:15:00,
2013-02-18 20:18:00,29.3,28.0,29.41,WNW,290,0.0,0.0,95,0.00,,SKC,0.01,VWS V14.01,2013-02-19 02:18:00,
2013-02-18 20:20:00,28.9,27.4,29.39,WNW,282,0.0,0.0,94,0.00,,SKC,0.01,VWS V14.01,2013-02-19 02:20:00,
2013-02-18 20:23:00,29.3,28.0,29.41,West,271,0.0,0.0,95,0.00,,SKC,0.01,VWS V14.01,2013-02-19 02:23:00,
2013-02-18 20:25:00,28.9,27.1,29.39,West,271,0.0,0.0,93,0.00,,SKC,0.01,VWS V14.01,2013-02-19 02:25:00,
2013-02-18 20:28:00,29.2,28.0,29.41,West,259,0.0,0.0,95,0.00,,SKC,0.01,VWS V14.01,2013-02-19 02:28:00,
2013-02-18 20:30:00,28.9,27.1,29.39,WNW,284,0.0,0.0,93,0.00,,SKC,0.01,VWS V14.01,2013-02-19 02:30:00,
2013-02-18 20:33:00,29.2,28.0,29.41,WNW,294,0.0,0.0,95,0.00,,SKC,0.01,VWS V14.01,2013-02-19 02:33:00,
2013-02-18 20:35:00,28.8,27.0,29.39,WSW,237,0.0,0.0,93,0.00,,SKC,0.01,VWS V14.01,2013-02-19 02:35:00,
2013-02-18 20:38:00,29.2,28.0,29.41,WNW,294,0.0,0.0,95,0.00,,SKC,0.01,VWS V14.01,2013-02-19 02:38:00,
2013-02-18 20:40:00,28.8,27.0,29.39,West,269,0.0,0.0,93,0.00,,SKC,0.01,VWS V14.01,2013-02-19 02:40:00,
2013-02-18 20:43:00,29.1,27.6,29.41,WNW,291,0.0,0.0,94,0.00,,SKC,0.01,VWS V14.01,2013-02-19 02:43:00,
2013-02-18 20:45:00,28.8,27.0,29.39,WSW,257,0.0,0.0,93,0.00,,SKC,0.01,VWS V14.01,2013-02-19 02:45:00,
2013-02-18 20:48:00,29.0,27.5,29.40,WNW,292,0.0,0.0,94,0.00,,SKC,0.01,VWS V14.01,2013-02-19 02:48:00,
2013-02-18 20:50:00,28.8,27.0,29.39,West,279,0.0,0.0,93,0.00,,SKC,0.01,VWS V14.01,2013-02-19 02:50:00,
2013-02-18 20:53:00,29.0,27.5,29.40,West,267,0.0,0.0,94,0.00,,SKC,0.01,VWS V14.01,2013-02-19 02:53:00,
2013-02-18 20:55:00,28.7,26.9,29.39,West,273,0.0,0.0,93,0.00,,SKC,0.01,VWS V14.01,2013-02-19 02:55:00,
2013-02-18 20:58:00,28.9,27.4,29.40,WSW,244,0.0,0.0,94,0.00,,SKC,0.01,VWS V14.01,2013-02-19 02:58:00,
2013-02-18 21:00:00,28.6,26.8,29.39,West,276,0.0,0.0,93,0.00,,SKC,0.01,VWS V14.01,2013-02-19 03:00:00,
2013-02-18 21:03:00,28.9,27.4,29.39,West,277,0.0,0.0,94,0.00,,SKC,0.01,VWS V14.01,2013-02-19 03:03:00,
2013-02-18 21:05:00,28.6,26.8,29.39,WNW,290,0.0,0.0,93,0.00,,SKC,0.01,VWS V14.01,2013-02-19 03:05:00,
2013-02-18 21:09:00,28.9,27.4,29.39,West,273,0.0,0.0,94,0.00,,SKC,0.01,VWS V14.01,2013-02-19 03:09:00,
2013-02-18 21:10:00,28.6,26.8,29.39,WSW,248,0.0,0.0,93,0.00,,SKC,0.01,VWS V14.01,2013-02-19 03:10:00,
2013-02-18 21:14:00,28.9,27.4,29.39,West,280,0.0,0.0,94,0.00,,SKC,0.01,VWS V14.01,2013-02-19 03:14:00,
2013-02-18 21:15:00,28.5,26.7,29.39,WSW,240,0.0,0.0,93,0.00,,SKC,0.01,VWS V14.01,2013-02-19 03:15:00,
2013-02-18 21:19:00,28.9,27.4,29.39,West,264,0.0,0.0,94,0.00,,SKC,0.01,VWS V14.01,2013-02-19 03:19:00,
2013-02-18 21:20:00,28.4,26.6,29.39,West,270,0.0,0.0,93,0.00,,SKC,0.01,VWS V14.01,2013-02-19 03:20:00,
2013-02-18 21:24:00,28.9,27.4,29.39,West,273,0.0,0.0,94,0.00,,SKC,0.01,VWS V14.01,2013-02-19 03:24:00,
2013-02-18 21:25:00,28.3,26.5,29.39,WNW,290,0.0,0.0,93,0.00,,SKC,0.01,VWS V14.01,2013-02-19 03:25:00,
2013-02-18 21:29:00,28.9,27.1,29.39,WNW,298,0.0,0.0,93,0.00,,SKC,0.01,VWS V14.01,2013-02-19 03:29:00,
2013-02-18 21:30:00,28.1,26.3,29.39,West,275,0.0,0.0,93,0.00,,SKC,0.01,VWS V14.01,2013-02-19 03:30:00,
2013-02-18 21:34:00,28.9,27.1,29.39,West,268,0.0,0.0,93,0.00,,SKC,0.01,VWS V14.01,2013-02-19 03:34:00,
2013-02-18 21:35:00,27.9,26.1,29.39,West,273,0.0,0.0,93,0.00,,SKC,0.01,VWS V14.01,2013-02-19 03:35:00,
2013-02-18 21:39:00,28.8,27.0,29.39,WSW,254,0.0,0.0,93,0.00,,SKC,0.01,VWS V14.01,2013-02-19 03:39:00,
2013-02-18 21:40:00,27.7,25.9,29.39,West,263,0.0,0.0,93,0.00,,SKC,0.01,VWS V14.01,2013-02-19 03:40:00,
2013-02-18 21:44:00,28.8,27.0,29.39,West,280,0.0,0.0,93,0.00,,SKC,0.01,VWS V14.01,2013-02-19 03:44:00,
2013-02-18 21:45:00,27.4,25.6,29.39,WNW,290,0.0,0.0,93,0.00,,SKC,0.01,VWS V14.01,2013-02-19 03:45:00,
2013-02-18 21:49:00,28.8,27.0,29.39,West,280,0.0,0.0,93,0.00,,SKC,0.01,VWS V14.01,2013-02-19 03:49:00,
2013-02-18 21:50:00,27.1,25.1,29.39,WSW,250,0.0,0.0,92,0.00,,SKC,0.01,VWS V14.01,2013-02-19 03:50:00,
2013-02-18 21:54:00,28.7,26.9,29.39,WNW,282,0.0,0.0,93,0.00,,SKC,0.01,VWS V14.01,2013-02-19 03:54:00,
2013-02-18 21:55:00,27.0,25.0,29.39,WSW,257,0.0,0.0,92,0.00,,SKC,0.01,VWS V14.01,2013-02-19 03:55:00,
2013-02-18 21:59:00,28.7,26.9,29.39,NW,306,0.0,0.0,93,0.00,,SKC,0.01,VWS V14.01,2013-02-19 03:59:00,
2013-02-18 22:00:00,26.9,24.9,29.39,West,277,0.0,0.0,92,0.00,,SKC,0.01,VWS V14.01,2013-02-19 04:00:00,
2013-02-18 22:04:00,28.6,26.8,29.39,West,271,0.0,0.0,93,0.00,,SKC,0.01,VWS V14.01,2013-02-19 04:04:00,
2013-02-18 22:05:00,26.6,24.9,29.39,WNW,285,0.0,0.0,93,0.00,,SKC,0.01,VWS V14.01,2013-02-19 04:05:00,
2013-02-18 22:09:00,28.6,26.8,29.39,West,277,0.0,0.0,93,0.00,,SKC,0.01,VWS V14.01,2013-02-19 04:09:00,
2013-02-18 22:10:00,26.4,24.6,29.39,West,276,0.0,0.0,93,0.00,,SKC,0.01,VWS V14.01,2013-02-19 04:10:00,
2013-02-18 22:14:00,28.5,26.7,29.39,West,276,0.0,0.0,93,0.00,,SKC,0.01,VWS V14.01,2013-02-19 04:14:00,
2013-02-18 22:15:00,26.3,24.6,29.39,North,5,0.0,0.0,93,0.00,,SKC,0.01,VWS V14.01,2013-02-19 04:15:00,
2013-02-18 22:19:00,28.4,26.6,29.39,WNW,295,0.0,0.0,93,0.00,,SKC,0.01,VWS V14.01,2013-02-19 04:19:00,
2013-02-18 22:20:00,26.2,24.5,29.39,WNW,283,0.0,0.0,93,0.00,,SKC,0.01,VWS V14.01,2013-02-19 04:20:00,
2013-02-18 22:25:00,28.3,26.5,29.39,West,275,0.0,0.0,93,0.00,,SKC,0.01,VWS V14.01,2013-02-19 04:25:00,
2013-02-18 22:30:00,28.2,26.4,29.39,WNW,283,0.0,0.0,93,0.00,,SKC,0.01,VWS V14.01,2013-02-19 04:30:00,
2013-02-18 22:35:00,28.0,26.2,29.39,WNW,284,0.0,0.0,93,0.00,,SKC,0.01,VWS V14.01,2013-02-19 04:35:00,
2013-02-18 22:40:00,27.8,26.0,29.39,WSW,248,0.0,0.0,93,0.00,,SKC,0.01,VWS V14.01,2013-02-19 04:40:00,
2013-02-18 22:45:00,27.5,25.8,29.39,NW,307,0.0,0.0,93,0.00,,SKC,0.01,VWS V14.01,2013-02-19 04:45:00,
2013-02-18 22:50:00,27.3,25.3,29.39,WSW,249,0.0,0.0,92,0.00,,SKC,0.01,VWS V14.01,2013-02-19 04:50:00,
2013-02-18 22:55:00,27.0,25.0,29.39,WSW,250,0.0,0.0,92,0.00,,SKC,0.01,VWS V14.01,2013-02-19 04:55:00,
2013-02-18 23:00:00,26.9,24.9,29.39,WSW,253,0.0,0.0,92,0.00,,SKC,0.01,VWS V14.01,2013-02-19 05:00:00,
2013-02-18 23:02:00,26.9,24.9,29.39,WSW,253,0.0,0.0,92,0.00,,SKC,0.01,VWS V14.01,2013-02-19 05:02:00,
2013-02-18 23:05:00,25.6,23.6,29.39,West,280,0.0,0.0,92,0.00,,SKC,0.00,VWS V14.01,2013-02-19 05:05:00,
2013-02-18 23:07:00,26.6,24.9,29.39,West,267,0.0,0.0,93,0.00,,SKC,0.01,VWS V14.01,2013-02-19 05:07:00,
2013-02-18 23:10:00,25.6,23.6,29.39,WNW,282,0.0,0.0,92,0.00,,SKC,0.00,VWS V14.01,2013-02-19 05:10:00,
2013-02-18 23:12:00,26.4,24.6,29.39,West,274,0.0,0.0,93,0.00,,SKC,0.01,VWS V14.01,2013-02-19 05:12:00,
2013-02-18 23:15:00,25.5,23.5,29.40,West,280,0.0,0.0,92,0.00,,SKC,0.00,VWS V14.01,2013-02-19 05:15:00,
2013-02-18 23:17:00,26.3,24.6,29.39,West,275,0.0,0.0,93,0.00,,SKC,0.01,VWS V14.01,2013-02-19 05:17:00,
2013-02-18 23:20:00,25.5,23.5,29.40,WNW,285,0.0,0.0,92,0.00,,SKC,0.00,VWS V14.01,2013-02-19 05:20:00,
2013-02-18 23:22:00,26.2,24.5,29.39,West,279,0.0,0.0,93,0.00,,SKC,0.01,VWS V14.01,2013-02-19 05:22:00,
2013-02-18 23:25:00,25.6,23.6,29.40,NW,307,0.0,0.0,92,0.00,,SKC,0.00,VWS V14.01,2013-02-19 05:25:00,
2013-02-18 23:27:00,26.1,24.4,29.39,ENE,66,0.0,0.0,93,0.00,,SKC,0.01,VWS V14.01,2013-02-19 05:27:00,
2013-02-18 23:30:00,25.6,23.6,29.39,NNE,22,0.0,0.0,92,0.00,,SKC,0.00,VWS V14.01,2013-02-19 05:30:00,
2013-02-18 23:32:00,26.0,24.3,29.39,West,275,0.0,0.0,93,0.00,,SKC,0.01,VWS V14.01,2013-02-19 05:32:00,
2013-02-18 23:35:00,25.6,23.6,29.39,West,267,0.0,0.0,92,0.00,,SKC,0.00,VWS V14.01,2013-02-19 05:35:00,
2013-02-18 23:37:00,25.9,24.4,29.39,West,273,0.0,0.0,94,0.00,,SKC,0.01,VWS V14.01,2013-02-19 05:37:00,
2013-02-18 23:40:00,25.5,23.8,29.39,West,261,0.0,0.0,93,0.00,,SKC,0.00,VWS V14.01,2013-02-19 05:40:00,
2013-02-18 23:42:00,25.8,24.3,29.39,West,273,0.0,0.0,94,0.00,,SKC,0.01,VWS V14.01,2013-02-19 05:42:00,
2013-02-18 23:45:00,25.5,23.8,29.39,West,277,0.0,0.0,93,0.00,,SKC,0.00,VWS V14.01,2013-02-19 05:45:00,
2013-02-18 23:47:00,25.8,24.1,29.40,WSW,258,0.0,0.0,93,0.00,,SKC,0.01,VWS V14.01,2013-02-19 05:47:00,
2013-02-18 23:50:00,25.5,23.8,29.39,West,269,0.0,0.0,93,0.00,,SKC,0.00,VWS V14.01,2013-02-19 05:50:00,
2013-02-18 23:52:00,25.8,24.1,29.40,WNW,302,0.0,0.0,93,0.00,,SKC,0.01,VWS V14.01,2013-02-19 05:52:00,
2013-02-18 23:55:00,25.5,23.8,29.39,WNW,287,0.0,0.0,93,0.00,,SKC,0.00,VWS V14.01,2013-02-19 05:55:00,
2013-02-18 23:57:00,25.7,24.0,29.40,WSW,253,0.0,0.0,93,0.00,,SKC,0.01,VWS V14.01,2013-02-19 05:57:00,